Overview Statistics Trail Chart Weather Telemetry Raw packets
 

This is the latest recevied weather packets stored in our database for station/object EA1GHG-11. If no packets are shown the sender has not sent any weather packets the latest 10 day(s).

<< 2 3 4 5 6 7 8 >>
Time Temp. Humidity Pressure Rain* Wind** Luminosity Snow
1788476710 19.44° C 100% 1025.5 hPa - - - -
1788476676 19.44° C 100% 1025.5 hPa - - - -
1788475175 20° C 100% 1025.5 hPa - - - -
1788473675 20.56° C 100% 1025.5 hPa - - - -
1788472175 21.11° C 100% 1025.5 hPa - - - -
1788470675 21.11° C 100% 1025.7 hPa - - - -
1788469175 22.22° C 100% 1025.5 hPa - - - -
1788467674 22.78° C 100% 1025.2 hPa - - - -
1788467076 22.78° C 100% 1025.1 hPa - - - -
1788465576 23.89° C 100% 1024.9 hPa - - - -
1788464112 24.44° C 100% 1024.4 hPa - - - -
1788464075 24.44° C 100% 1024.4 hPa - - - -
1788462575 26.11° C 100% 1024.5 hPa - - - -
1788461075 27.78° C 100% 1024.2 hPa - - - -
1788459575 29.44° C 100% 1024.3 hPa - - - -
1788458075 30.56° C 59% 1024.2 hPa - - - -
1788456575 30.56° C 48% 1024.3 hPa - - - -
1788455075 31.67° C 39% 1024.4 hPa - - - -
1788453575 31.67° C 39% 1024.3 hPa - - - -
1788452074 32.22° C 38% 1024.4 hPa - - - -
1788450574 32.22° C 40% 1024.4 hPa - - - -
1788449074 32.22° C 37% 1024.6 hPa - - - -
1788447574 32.22° C 37% 1024.8 hPa - - - -
1788446074 32.22° C 41% 1025 hPa - - - -
1788445476 32.22° C 41% 1025.1 hPa - - - -

* Rain since midnight (hover to see other rain measurements)
** Current wind speed in m/s (hover to see current wind gust speed)